Flag for U.S.A. Weather past 2 weeks in Sioux Falls, South Dakota, U.S.A.

Now
66 °F

Clear.


Feels Like: 66 °F
Forecast: 63 / 82 °F
Wind: 10 mph from South

Location: Foss Field

Current Time: Sep 3, 2014 at 2:52:07 AM

Latest Report: Sep 3, 2014 at 1:56 AM


Visibility: 10 mi

Pressure: 29.82 "Hg

Humidity: 73%

Dew point: 57 °F

Location of Sioux FallsLocation

Historic Weather in Sioux Falls — Graph

°F

Sioux Falls temperature yesterday

Maximum temperature yesterday: 76 °F (at 3:56 PM)
Minimum temperature yesterday: 53 °F (at 6:56 AM)
Average temperature yesterday: 66 °F

Past Weeks' High & Low Weather Summary

 TemperatureHumidityPressure
High90 °F (Aug 21, 2:56 PM)97% (Aug 22, 3:56 AM)30.22 "Hg (Aug 22, 3:56 AM)
Low52 °F (Aug 26, 6:56 AM)45% (Aug 19, 4:56 PM)29.61 "Hg (Aug 31, 7:56 PM)
Average70 °F79%29.87 "Hg
* Reported Aug 19 12:56 AM — Sep 3 12:56 AM, Sioux Falls, Weather by CustomWeather, © 2014

Note: Actual official high and low records may vary slightly from our data, if they occured in-between our weather recording intervals... More about our weather records

Advertising

Sioux Falls weather history for previous 24 hours

 ConditionsComfort  
Time TempWeatherWind HumidityBarometerVisibility
12:56 AM
Sep 3
68 °FPartly cloudy.13 mph68%29.84 "Hg10 mi
11:56 PM
Sep 2
67 °FClear.13 mph71%29.86 "Hg10 mi
10:56 PM68 °FPassing clouds.12 mph70%29.86 "Hg10 mi
9:56 PM67 °FPassing clouds.12 mph71%29.87 "Hg10 mi
8:56 PM66 °FPartly sunny.7 mph73%29.88 "Hg10 mi
7:56 PM69 °FPartly sunny.7 mph66%29.87 "Hg10 mi
6:56 PM73 °FPassing clouds.12 mph53%29.88 "Hg10 mi
5:56 PM74 °FPassing clouds.13 mph52%29.90 "Hg10 mi
4:56 PM75 °FScattered clouds.9 mph52%29.91 "Hg10 mi
3:56 PM76 °FPassing clouds.9 mph48%29.92 "Hg10 mi
2:56 PM74 °FPassing clouds.6 mph57%29.92 "Hg10 mi
1:56 PM74 °FPassing clouds.6 mph52%29.93 "Hg10 mi
12:56 PM72 °FPassing clouds.6 mph59%29.94 "Hg10 mi
11:56 AM70 °FPassing clouds.8 mph73%29.95 "Hg10 mi
10:56 AM68 °FPassing clouds.6 mph70%29.95 "Hg10 mi
9:56 AM66 °FPassing clouds.No wind75%29.94 "Hg10 mi
8:56 AM62 °FSunny.6 mph83%29.93 "Hg10 mi
7:56 AM58 °FPassing clouds.3 mph90%29.93 "Hg10 mi
6:56 AM53 °FClear.6 mph93%29.91 "Hg10 mi
5:56 AM56 °FClear.3 mph93%29.91 "Hg10 mi
4:56 AM57 °FClear.No wind90%29.91 "Hg10 mi
3:56 AM58 °FClear.3 mph90%29.91 "Hg10 mi
2:56 AM61 °FClear.3 mph78%29.88 "Hg10 mi
Weather by CustomWeather, © 2014

See weather overviewHow to use our weather pages